Retour au catalogue

NOAA 16 DEB

LostPO
NORAD 41527·DEBRIS·🇺🇸 United States

Lancé Sep 21, 2000 depuis Vandenberg Space Force Base

Loading…

Prochains Passages (prochaines 24 heures)

TLE

PériméSource: Space-Track

Époque: Apr 24, 2023, 17:49 UTC

1 41527U 00055NB  23114.74282681  .00033716  00000-0  12278-1 0  9999
2 41527  99.0691 297.7606 0047076 242.2391 117.4013 14.32373637370173

Suivez NOAA 16 DEB en temps réel avec AllMySat

Download on the App Store